,,Stat5,,Stat1,,Stat2,,Stat3,,Stat4,,Wind1,,Wind1,
time,status,PA1M_AVG,status,PR1M_SUM,status,RH1M_AVG,status,SR1M_AVG,status,TA1M_AVG,status,W1dAve1m,status,W1sAve1m,
2000-08-10, 00:00:00,VALID,917.233,VALID,0,VALID,100,VALID,-0.0169808,VALID,19.4835,VALID,153,VALID,0,
2000-08-10, 00:01:00,VALID,917.218,VALID,0,VALID,100,VALID,-0.0169808,VALID,19.4967,VALID,153,VALID,0,
2000-08-10, 00:02:00,VALID,917.207,VALID,0,VALID,100,VALID,0,VALID,19.4932,VALID,153,VALID,0,
2000-08-10, 00:03:00,VALID,917.203,VALID,0,VALID,100,VALID,0,VALID,19.4994,VALID,155,VALID,0,
2000-08-10, 00:04:00,VALID,917.194,VALID,0,VALID,100,VALID,0,VALID,19.4962,VALID,155,VALID,0,
2000-08-10, 00:05:00,VALID,917.168,VALID,0,VALID,100,VALID,0,VALID,19.4897,VALID,193,VALID,0,
2000-08-10, 00:06:00,VALID,917.158,VALID,0,VALID,100,VALID,0,VALID,19.4964,VALID,221,VALID,0.126334,
2000-08-10, 00:07:00,VALID,917.131,VALID,0,VALID,100,VALID,-0.0169808,VALID,19.4862,VALID,236,VALID,0.734766,
2000-08-10, 00:08:00,VALID,917.103,VALID,0,VALID,100,VALID,0,VALID,19.4962,VALID,231,VALID,0.609976,
2000-08-10, 00:09:00,VALID,917.077,VALID,0,VALID,100,VALID,-0.0169808,VALID,19.4964,VALID,216,VALID,0.292411,
2000-08-10, 00:10:00,VALID,917.055,VALID,0,VALID,100,VALID,-0.0169808,VALID,19.4932,VALID,230,VALID,0,
2000-08-10, 00:11:00,VALID,917.035,VALID,0,VALID,100,VALID,0,VALID,19.4902,VALID,230,VALID,0,
2000-08-10, 00:12:00,VALID,917.014,VALID,0,VALID,100,VALID,-0.0169808,VALID,19.4706,VALID,230,VALID,0,
2000-08-10, 00:13:00,VALID,916.979,VALID,0,VALID,100,VALID,-0.0169808,VALID,19.4905,VALID,187,VALID,0,
2000-08-10, 00:14:00,VALID,916.955,VALID,0,VALID,100,VALID,0,VALID,19.4999,VALID,163,VALID,0,
2000-08-10, 00:15:00,VALID,916.92,VALID,0,VALID,100,VALID,0,VALID,19.5131,VALID,155,VALID,0,
2000-08-10, 00:16:00,VALID,916.913,VALID,0,VALID,100,VALID,-0.0169808,VALID,19.5096,VALID,154,VALID,0,
2000-08-10, 00:17:00,VALID,916.9,VALID,0,VALID,100,VALID,-0.0169808,VALID,19.5066,VALID,154,VALID,0,
2000-08-10, 00:18:00,VALID,916.908,VALID,0,VALID,100,VALID,0,VALID,19.4867,VALID,150,VALID,0,
2000-08-10, 00:19:00,VALID,916.912,VALID,0.2,VALID,100,VALID,-0.0169808,VALID,19.477,VALID,148,VALID,0.310855,
2000-08-10, 00:20:00,VALID,916.931,VALID,0,VALID,100,VALID,-0.0169808,VALID,19.4644,VALID,129,VALID,0.685497,
2000-08-10, 00:21:00,VALID,916.938,VALID,0,VALID,100,VALID,-0.0169808,VALID,19.4487,VALID,125,VALID,0.779647,
2000-08-10, 00:22:00,VALID,916.954,VALID,0,VALID,100,VALID,-0.0169808,VALID,19.445,VALID,118,VALID,0.794552,
2000-08-10, 00:23:00,VALID,916.952,VALID,0,VALID,100,VALID,-0.0339617,VALID,19.4057,VALID,102,VALID,0.822163,
2000-08-10, 00:24:00,VALID,916.947,VALID,0,VALID,100,VALID,0,VALID,19.4129,VALID,90,VALID,0.860176,
2000-08-10, 00:25:00,VALID,916.945,VALID,0,VALID,100,VALID,0,VALID,19.4283,VALID,96,VALID,0.747196,
2000-08-10, 00:26:00,VALID,916.942,VALID,0,VALID,100,VALID,-0.0169808,VALID,19.4447,VALID,101,VALID,0.70818,
2000-08-10, 00:27:00,VALID,916.943,VALID,0.2,VALID,100,VALID,-0.0169808,VALID,19.4353,VALID,100,VALID,0.78639,
2000-08-10, 00:28:00,VALID,916.958,VALID,0,VALID,100,VALID,-0.0169808,VALID,19.4487,VALID,104,VALID,0.929054,
2000-08-10, 00:29:00,VALID,916.971,VALID,0,VALID,100,VALID,-0.0339617,VALID,19.3868,VALID,106,VALID,0.999783,
2000-08-10, 00:30:00,VALID,917.004,VALID,0.2,VALID,100,VALID,-0.0169808,VALID,19.4065,VALID,110,VALID,0.812066,
2000-08-10, 00:31:00,VALID,917.023,VALID,0,VALID,100,VALID,-0.0169808,VALID,19.4445,VALID,111,VALID,0.861637,
2000-08-10, 00:32:00,VALID,917.034,VALID,0,VALID,100,VALID,0,VALID,19.4288,VALID,107,VALID,0.697846,
2000-08-10, 00:33:00,VALID,917.063,VALID,0,VALID,100,VALID,0,VALID,19.4191,VALID,97,VALID,0.7,
2000-08-10, 00:34:00,VALID,917.058,VALID,0.2,VALID,100,VALID,0,VALID,19.4254,VALID,102,VALID,0.738839,
2000-08-10, 00:35:00,VALID,917.061,VALID,0,VALID,100,VALID,0,VALID,19.4325,VALID,92,VALID,0.600329,
2000-08-10, 00:36:00,VALID,917.054,VALID,0,VALID,100,VALID,0,VALID,19.4422,VALID,92,VALID,0.598758,
2000-08-10, 00:37:00,VALID,917.046,VALID,0,VALID,100,VALID,0,VALID,19.4057,VALID,84,VALID,0.601563,
2000-08-10, 00:38:00,VALID,917.03,VALID,0.2,VALID,100,VALID,-0.0169808,VALID,19.3801,VALID,90,VALID,0.261513,
2000-08-10, 00:39:00,VALID,917.019,VALID,0,VALID,100,VALID,0,VALID,19.3834,VALID,91,VALID,0,
2000-08-10, 00:40:00,VALID,917.007,VALID,0,VALID,100,VALID,0,VALID,19.4032,VALID,99,VALID,0,
2000-08-10, 00:41:00,VALID,916.99,VALID,0,VALID,100,VALID,0,VALID,19.4291,VALID,99,VALID,0,
2000-08-10, 00:42:00,VALID,916.973,VALID,0,VALID,100,VALID,0,VALID,19.4224,VALID,119,VALID,0,
2000-08-10, 00:43:00,VALID,916.963,VALID,0,VALID,100,VALID,0,VALID,19.4159,VALID,167,VALID,0,
2000-08-10, 00:44:00,VALID,916.96,VALID,0,VALID,100,VALID,0,VALID,19.4191,VALID,199,VALID,0,
2000-08-10, 00:45:00,VALID,916.946,VALID,0,VALID,100,VALID,-0.0169808,VALID,19.4186,VALID,208,VALID,0,
2000-08-10, 00:46:00,VALID,916.956,VALID,0,VALID,100,VALID,-0.0169808,VALID,19.4291,VALID,210,VALID,0,
2000-08-10, 00:47:00,VALID,916.921,VALID,0,VALID,100,VALID,0,VALID,19.4321,VALID,224,VALID,0,
2000-08-10, 00:48:00,VALID,916.911,VALID,0,VALID,100,VALID,-0.0169808,VALID,19.4452,VALID,226,VALID,0,
2000-08-10, 00:49:00,VALID,916.896,VALID,0.2,VALID,100,VALID,0,VALID,19.4422,VALID,227,VALID,0,
2000-08-10, 00:50:00,VALID,916.869,VALID,0,VALID,100,VALID,-0.0169808,VALID,19.4286,VALID,229,VALID,0.445524,
2000-08-10, 00:51:00,VALID,916.839,VALID,0,VALID,100,VALID,-0.0339617,VALID,19.4323,VALID,232,VALID,0.766964,
2000-08-10, 00:52:00,VALID,916.8,VALID,0,VALID,100,VALID,-0.0169808,VALID,19.4258,VALID,224,VALID,0.437911,
2000-08-10, 00:53:00,VALID,916.776,VALID,0,VALID,100,VALID,-0.0169808,VALID,19.4226,VALID,210,VALID,0.705236,
2000-08-10, 00:54:00,VALID,916.74,VALID,0,VALID,100,VALID,-0.0169808,VALID,19.4124,VALID,205,VALID,0,
2000-08-10, 00:55:00,VALID,916.73,VALID,0,VALID,100,VALID,-0.0169808,VALID,19.403,VALID,198,VALID,0.320508,
2000-08-10, 00:56:00,VALID,916.685,VALID,0.2,VALID,100,VALID,0,VALID,19.4,VALID,181,VALID,0,
2000-08-10, 00:57:00,VALID,916.673,VALID,0,VALID,100,VALID,0,VALID,19.3863,VALID,184,VALID,0.441817,
2000-08-10, 00:58:00,VALID,916.659,VALID,0,VALID,100,VALID,0,VALID,19.3871,VALID,184,VALID,0.767578,
2000-08-10, 00:59:00,VALID,916.642,VALID,0.2,VALID,100,VALID,0,VALID,19.3836,VALID,197,VALID,0.915264,
2000-08-10, 01:00:00,VALID,916.638,VALID,0,VALID,100,VALID,0,VALID,19.3868,VALID,196,VALID,0.874554,
2000-08-10, 01:01:00,VALID,916.627,VALID,0,VALID,100,VALID,0,VALID,19.3963,VALID,203,VALID,0.5375,
2000-08-10, 01:02:00,VALID,916.615,VALID,0.2,VALID,100,VALID,-0.0339617,VALID,19.4159,VALID,216,VALID,0.627821,
2000-08-10, 01:03:00,VALID,916.612,VALID,0,VALID,100,VALID,-0.0169808,VALID,19.4157,VALID,220,VALID,0.397569,
2000-08-10, 01:04:00,VALID,916.581,VALID,0.2,VALID,100,VALID,-0.0169808,VALID,19.4191,VALID,218,VALID,0.419872,
2000-08-10, 01:05:00,VALID,916.559,VALID,0,VALID,100,VALID,-0.0169808,VALID,19.4226,VALID,236,VALID,0.386719,
2000-08-10, 01:06:00,VALID,916.539,VALID,0,VALID,100,VALID,-0.0339617,VALID,19.4288,VALID,235,VALID,0.537623,
2000-08-10, 01:07:00,VALID,916.511,VALID,0.2,VALID,100,VALID,0,VALID,19.4353,VALID,235,VALID,0.59185,
2000-08-10, 01:08:00,VALID,916.485,VALID,0,VALID,100,VALID,-0.0339617,VALID,19.4221,VALID,197,VALID,0.449653,
2000-08-10, 01:09:00,VALID,916.45,VALID,0,VALID,100,VALID,0,VALID,19.4291,VALID,239,VALID,0.0147804,
2000-08-10, 01:10:00,VALID,916.425,VALID,0.2,VALID,100,VALID,0,VALID,19.4226,VALID,212,VALID,0,
2000-08-10, 01:11:00,VALID,916.417,VALID,0,VALID,100,VALID,0,VALID,19.4288,VALID,173,VALID,0,
2000-08-10, 01:12:00,VALID,916.399,VALID,0.2,VALID,100,VALID,0,VALID,19.4318,VALID,172,VALID,0,
2000-08-10, 01:13:00,VALID,916.379,VALID,0,VALID,100,VALID,0,VALID,19.4482,VALID,147,VALID,0,
2000-08-10, 01:14:00,VALID,916.38,VALID,0,VALID,100,VALID,0.0169808,VALID,19.4646,VALID,139,VALID,0,
2000-08-10, 01:15:00,VALID,916.369,VALID,0.2,VALID,100,VALID,0,VALID,19.4577,VALID,136,VALID,0,
2000-08-10, 01:16:00,VALID,916.365,VALID,0,VALID,100,VALID,0,VALID,19.4867,VALID,132,VALID,0,
2000-08-10, 01:17:00,VALID,916.347,VALID,0.2,VALID,100,VALID,0,VALID,19.4579,VALID,132,VALID,0.512723,
2000-08-10, 01:18:00,VALID,916.347,VALID,0.2,VALID,100,VALID,0,VALID,19.4579,VALID,134,VALID,0.534745,
2000-08-10, 01:19:00,VALID,916.353,VALID,0,VALID,100,VALID,0,VALID,19.4318,VALID,155,VALID,0.493243,
2000-08-10, 01:20:00,VALID,916.329,VALID,0,VALID,100,VALID,0.0169808,VALID,19.3737,VALID,185,VALID,0.568142,
2000-08-10, 01:21:00,VALID,916.32,VALID,0,VALID,100,VALID,0,VALID,19.3545,VALID,202,VALID,0.674479,
2000-08-10, 01:22:00,VALID,916.302,VALID,0,VALID,100,VALID,0,VALID,19.3478,VALID,219,VALID,0.605058,
2000-08-10, 01:23:00,VALID,916.294,VALID,0.2,VALID,100,VALID,0,VALID,19.3707,VALID,220,VALID,0.445735,
2000-08-10, 01:24:00,VALID,916.279,VALID,0,VALID,100,VALID,0,VALID,19.3771,VALID,218,VALID,0.499777,
2000-08-10, 01:25:00,VALID,916.275,VALID,0,VALID,100,VALID,0.0339617,VALID,19.3836,VALID,215,VALID,0.297768,
2000-08-10, 01:26:00,VALID,916.282,VALID,0,VALID,100,VALID,0,VALID,19.3898,VALID,215,VALID,0.181949,
2000-08-10, 01:27:00,VALID,916.29,VALID,0.2,VALID,100,VALID,0,VALID,19.3933,VALID,219,VALID,0.693109,
2000-08-10, 01:28:00,VALID,916.283,VALID,0,VALID,100,VALID,0.0169808,VALID,19.3834,VALID,230,VALID,0.832422,
2000-08-10, 01:29:00,VALID,916.281,VALID,0,VALID,100,VALID,0.0339617,VALID,19.364,VALID,224,VALID,1.03269,
2000-08-10, 01:30:00,VALID,916.267,VALID,0,VALID,100,VALID,0,VALID,19.3342,VALID,222,VALID,0.695313,
2000-08-10, 01:31:00,VALID,916.247,VALID,0.2,VALID,100,VALID,0.0339617,VALID,19.3543,VALID,224,VALID,0.762019,
2000-08-10, 01:32:00,VALID,916.23,VALID,0,VALID,100,VALID,0,VALID,19.3446,VALID,232,VALID,0.799279,
2000-08-10, 01:33:00,VALID,916.221,VALID,0,VALID,100,VALID,0,VALID,19.3252,VALID,228,VALID,0.71855,
2000-08-10, 01:34:00,VALID,916.215,VALID,0,VALID,100,VALID,-0.0169808,VALID,19.319,VALID,220,VALID,0.591741,
2000-08-10, 01:35:00,VALID,916.218,VALID,0,VALID,100,VALID,0,VALID,19.3155,VALID,208,VALID,0.2875,
2000-08-10, 01:36:00,VALID,916.214,VALID,0,VALID,100,VALID,0,VALID,19.316,VALID,200,VALID,0.498047,
2000-08-10, 01:37:00,VALID,916.214,VALID,0.2,VALID,100,VALID,0,VALID,19.3061,VALID,191,VALID,0.37066,
2000-08-10, 01:38:00,VALID,916.205,VALID,0,VALID,100,VALID,0,VALID,19.2864,VALID,174,VALID,0.663218,
2000-08-10, 01:39:00,VALID,916.194,VALID,0.2,VALID,100,VALID,0,VALID,19.2738,VALID,184,VALID,0.487459,
2000-08-10, 01:40:00,VALID,916.176,VALID,0,VALID,100,VALID,-0.0169808,VALID,19.2807,VALID,190,VALID,0.307221,
2000-08-10, 01:41:00,VALID,916.16,VALID,0,VALID,100,VALID,0,VALID,19.2805,VALID,191,VALID,0.027027,
2000-08-10, 01:42:00,VALID,916.142,VALID,0.2,VALID,100,VALID,0.0169808,VALID,19.2897,VALID,191,VALID,0,
2000-08-10, 01:43:00,VALID,916.131,VALID,0,VALID,100,VALID,-0.101885,VALID,19.3075,VALID,191,VALID,0,
2000-08-10, 01:44:00,VALID,916.118,VALID,0,VALID,100,VALID,-0.101885,VALID,19.3237,VALID,191,VALID,0,
2000-08-10, 01:45:00,VALID,916.112,VALID,0.2,VALID,100,VALID,-0.118866,VALID,19.3078,VALID,191,VALID,0,
2000-08-10, 01:46:00,VALID,916.092,VALID,0,VALID,100,VALID,-0.101885,VALID,19.3103,VALID,191,VALID,0,
2000-08-10, 01:47:00,VALID,916.064,VALID,0.2,VALID,100,VALID,-0.101885,VALID,19.3366,VALID,218,VALID,0,
2000-08-10, 01:48:00,VALID,916.048,VALID,0,VALID,100,VALID,-0.0849042,VALID,19.3562,VALID,220,VALID,0,
2000-08-10, 01:49:00,VALID,916.036,VALID,0.2,VALID,100,VALID,-0.101885,VALID,19.3592,VALID,209,VALID,0,
2000-08-10, 01:50:00,VALID,916.03,VALID,0,VALID,100,VALID,-0.135847,VALID,19.349,VALID,217,VALID,0.188702,
2000-08-10, 01:51:00,VALID,916.034,VALID,0.2,VALID,100,VALID,-0.101885,VALID,19.3368,VALID,203,VALID,0.484598,
2000-08-10, 01:52:00,VALID,916.035,VALID,0,VALID,100,VALID,-0.118866,VALID,19.3207,VALID,202,VALID,0,
2000-08-10, 01:53:00,VALID,916.032,VALID,0.2,VALID,100,VALID,-0.101885,VALID,19.3108,VALID,194,VALID,0,
2000-08-10, 01:54:00,VALID,916.023,VALID,0,VALID,100,VALID,-0.0849042,VALID,19.2852,VALID,192,VALID,0,
2000-08-10, 01:55:00,VALID,916.03,VALID,0,VALID,100,VALID,-0.118866,VALID,19.2655,VALID,185,VALID,0,
2000-08-10, 01:56:00,VALID,916.025,VALID,0,VALID,100,VALID,-0.118866,VALID,19.2625,VALID,183,VALID,0,
2000-08-10, 01:57:00,VALID,916.034,VALID,0,VALID,100,VALID,-0.101885,VALID,19.2755,VALID,166,VALID,0,
2000-08-10, 01:58:00,VALID,916.025,VALID,0,VALID,100,VALID,-0.0169808,VALID,19.2934,VALID,161,VALID,0,
2000-08-10, 01:59:00,VALID,916.022,VALID,0,VALID,100,VALID,-0.0339617,VALID,19.2931,VALID,164,VALID,0,
2000-08-10, 02:00:00,VALID,916.025,VALID,0,VALID,100,VALID,-0.0169808,VALID,19.274,VALID,184,VALID,0,
2000-08-10, 02:01:00,VALID,916.012,VALID,0,VALID,100,VALID,-0.0339617,VALID,19.268,VALID,199,VALID,0,
2000-08-10, 02:02:00,VALID,916.005,VALID,0.2,VALID,100,VALID,0,VALID,19.2479,VALID,204,VALID,0,
2000-08-10, 02:03:00,VALID,915.992,VALID,0,VALID,100,VALID,-0.0169808,VALID,19.2419,VALID,190,VALID,0,
2000-08-10, 02:04:00,VALID,915.982,VALID,0,VALID,100,VALID,0,VALID,19.2318,VALID,200,VALID,0,
2000-08-10, 02:05:00,VALID,915.982,VALID,0,VALID,100,VALID,-0.0169808,VALID,19.2514,VALID,221,VALID,0,
2000-08-10, 02:06:00,VALID,915.969,VALID,0,VALID,100,VALID,-0.0339617,VALID,19.2611,VALID,222,VALID,0,
2000-08-10, 02:07:00,VALID,915.976,VALID,0,VALID,100,VALID,-0.0339617,VALID,19.2646,VALID,223,VALID,0.289263,
2000-08-10, 02:08:00,VALID,915.981,VALID,0,VALID,100,VALID,-0.0339617,VALID,19.2648,VALID,215,VALID,0.667509,
2000-08-10, 02:09:00,VALID,915.978,VALID,0,VALID,100,VALID,-0.0169808,VALID,19.2479,VALID,225,VALID,0.431538,
2000-08-10, 02:10:00,VALID,915.985,VALID,0,VALID,100,VALID,-0.0169808,VALID,19.235,VALID,228,VALID,0.62141,
2000-08-10, 02:11:00,VALID,915.975,VALID,0,VALID,100,VALID,-0.0169808,VALID,19.2549,VALID,223,VALID,0.458333,
2000-08-10, 02:12:00,VALID,915.976,VALID,0,VALID,100,VALID,0,VALID,19.2447,VALID,219,VALID,0.946615,
2000-08-10, 02:13:00,VALID,915.972,VALID,0,VALID,100,VALID,0,VALID,19.2477,VALID,235,VALID,0.685033,
2000-08-10, 02:14:00,VALID,915.962,VALID,0,VALID,100,VALID,-0.0169808,VALID,19.2479,VALID,224,VALID,1.26182,
2000-08-10, 02:15:00,VALID,915.95,VALID,0,VALID,100,VALID,0,VALID,19.2646,VALID,233,VALID,1.14107,
2000-08-10, 02:16:00,VALID,915.951,VALID,0,VALID,100,VALID,0,VALID,19.2705,VALID,232,VALID,1.12701,
2000-08-10, 02:17:00,VALID,915.945,VALID,0,VALID,100,VALID,0,VALID,19.2802,VALID,234,VALID,1.09745,
2000-08-10, 02:18:00,VALID,915.917,VALID,0,VALID,100,VALID,0,VALID,19.2772,VALID,240,VALID,1.22616,
2000-08-10, 02:19:00,VALID,915.915,VALID,0,VALID,100,VALID,0,VALID,19.28,VALID,252,VALID,0.945703,
2000-08-10, 02:20:00,VALID,915.899,VALID,0,VALID,100,VALID,0,VALID,19.2738,VALID,245,VALID,0.956003,
2000-08-10, 02:21:00,VALID,915.88,VALID,0,VALID,100,VALID,0,VALID,19.2834,VALID,242,VALID,0.98353,
2000-08-10, 02:22:00,VALID,915.872,VALID,0,VALID,100,VALID,0,VALID,19.283,VALID,248,VALID,1.15184,
2000-08-10, 02:23:00,VALID,915.861,VALID,0,VALID,100,VALID,0,VALID,19.2899,VALID,253,VALID,1.08754,
2000-08-10, 02:24:00,VALID,915.849,VALID,0,VALID,100,VALID,0,VALID,19.2867,VALID,240,VALID,1.3119,
2000-08-10, 02:25:00,VALID,915.833,VALID,0.2,VALID,100,VALID,-0.0169808,VALID,19.2735,VALID,239,VALID,0.881473,
2000-08-10, 02:26:00,VALID,915.822,VALID,0,VALID,100,VALID,0,VALID,19.2902,VALID,225,VALID,1.48652,
2000-08-10, 02:27:00,VALID,915.816,VALID,0,VALID,100,VALID,0,VALID,19.2802,VALID,226,VALID,1.31141,
2000-08-10, 02:28:00,VALID,915.803,VALID,0,VALID,100,VALID,0,VALID,19.277,VALID,235,VALID,1.13281,
2000-08-10, 02:29:00,VALID,915.772,VALID,0,VALID,100,VALID,-0.0169808,VALID,19.2936,VALID,246,VALID,1.4981,
2000-08-10, 02:30:00,VALID,915.758,VALID,0,VALID,100,VALID,-0.0339617,VALID,19.2834,VALID,230,VALID,1.7169,
2000-08-10, 02:31:00,VALID,915.747,VALID,0,VALID,100,VALID,-0.0339617,VALID,19.2971,VALID,221,VALID,1.43074,
2000-08-10, 02:32:00,VALID,915.74,VALID,0,VALID,100,VALID,0,VALID,19.2931,VALID,224,VALID,0.829181,
2000-08-10, 02:33:00,VALID,915.731,VALID,0,VALID,100,VALID,0,VALID,19.3095,VALID,218,VALID,0.693304,
2000-08-10, 02:34:00,VALID,915.724,VALID,0,VALID,100,VALID,0,VALID,19.3093,VALID,238,VALID,1.25308,
2000-08-10, 02:35:00,VALID,915.72,VALID,0,VALID,100,VALID,0,VALID,19.2961,VALID,225,VALID,1.24134,
2000-08-10, 02:36:00,VALID,915.702,VALID,0,VALID,100,VALID,-0.0339617,VALID,19.3028,VALID,241,VALID,1.10747,
2000-08-10, 02:37:00,VALID,915.693,VALID,0,VALID,100,VALID,-0.0169808,VALID,19.2961,VALID,233,VALID,0.975,
2000-08-10, 02:38:00,VALID,915.681,VALID,0,VALID,100,VALID,0,VALID,19.3065,VALID,229,VALID,1.11081,
2000-08-10, 02:39:00,VALID,915.675,VALID,0,VALID,100,VALID,0,VALID,19.3133,VALID,242,VALID,0.915296,
2000-08-10, 02:40:00,VALID,915.669,VALID,0,VALID,100,VALID,-0.0339617,VALID,19.3162,VALID,233,VALID,1.44512,
2000-08-10, 02:41:00,VALID,915.653,VALID,0,VALID,100,VALID,0,VALID,19.2931,VALID,228,VALID,1.2478,
2000-08-10, 02:42:00,VALID,915.636,VALID,0,VALID,100,VALID,0,VALID,19.2971,VALID,231,VALID,1.01094,
2000-08-10, 02:43:00,VALID,915.634,VALID,0,VALID,100,VALID,-0.0169808,VALID,19.2904,VALID,224,VALID,0.733789,
2000-08-10, 02:44:00,VALID,915.608,VALID,0,VALID,100,VALID,-0.0169808,VALID,19.28,VALID,232,VALID,1.05838,
2000-08-10, 02:45:00,VALID,915.619,VALID,0,VALID,100,VALID,-0.0169808,VALID,19.2902,VALID,223,VALID,1.23438,
2000-08-10, 02:46:00,VALID,915.618,VALID,0,VALID,100,VALID,-0.0169808,VALID,19.2902,VALID,245,VALID,1.00801,
2000-08-10, 02:47:00,VALID,915.607,VALID,0.2,VALID,100,VALID,-0.0169808,VALID,19.2869,VALID,221,VALID,1.18113,
2000-08-10, 02:48:00,VALID,915.61,VALID,0,VALID,100,VALID,-0.0169808,VALID,19.2775,VALID,227,VALID,1.30243,
2000-08-10, 02:49:00,VALID,915.616,VALID,0,VALID,100,VALID,0,VALID,19.274,VALID,213,VALID,1.12014,
2000-08-10, 02:50:00,VALID,915.628,VALID,0,VALID,100,VALID,-0.0169808,VALID,19.2675,VALID,200,VALID,1.00174,
2000-08-10, 02:51:00,VALID,915.615,VALID,0,VALID,100,VALID,0,VALID,19.2646,VALID,190,VALID,0.981208,
2000-08-10, 02:52:00,VALID,915.61,VALID,0,VALID,100,VALID,0,VALID,19.2611,VALID,202,VALID,0.971217,
2000-08-10, 02:53:00,VALID,915.584,VALID,0,VALID,100,VALID,-0.0169808,VALID,19.2715,VALID,202,VALID,0.542869,
2000-08-10, 02:54:00,VALID,915.563,VALID,0,VALID,100,VALID,-0.0169808,VALID,19.2775,VALID,225,VALID,0.192107,
2000-08-10, 02:55:00,VALID,915.547,VALID,0,VALID,100,VALID,-0.0169808,VALID,19.2738,VALID,219,VALID,0.648015,
2000-08-10, 02:56:00,VALID,915.532,VALID,0,VALID,100,VALID,0,VALID,19.2832,VALID,222,VALID,0.243832,
2000-08-10, 02:57:00,VALID,915.505,VALID,0,VALID,100,VALID,0,VALID,19.3066,VALID,226,VALID,0.1875,
2000-08-10, 02:58:00,VALID,915.495,VALID,0,VALID,100,VALID,-0.101885,VALID,19.3105,VALID,194,VALID,0.673678,
2000-08-10, 02:59:00,VALID,915.481,VALID,0,VALID,100,VALID,-0.0679233,VALID,19.2906,VALID,199,VALID,0.605469,
2000-08-10, 03:00:00,VALID,915.483,VALID,0,VALID,100,VALID,-0.0849042,VALID,19.2973,VALID,217,VALID,0.321752,
2000-08-10, 03:01:00,VALID,915.477,VALID,0,VALID,100,VALID,-0.101885,VALID,19.3006,VALID,223,VALID,1.10473,
2000-08-10, 03:02:00,VALID,915.474,VALID,0,VALID,100,VALID,-0.101885,VALID,19.2805,VALID,214,VALID,0.86697,
2000-08-10, 03:03:00,VALID,915.49,VALID,0,VALID,100,VALID,-0.101885,VALID,19.2944,VALID,221,VALID,0.190972,
2000-08-10, 03:04:00,VALID,915.497,VALID,0,VALID,100,VALID,-0.101885,VALID,19.2939,VALID,196,VALID,0.804688,
2000-08-10, 03:05:00,VALID,915.513,VALID,0,VALID,100,VALID,-0.0849042,VALID,19.304,VALID,207,VALID,0.61212,
2000-08-10, 03:06:00,VALID,915.513,VALID,0,VALID,100,VALID,-0.0679233,VALID,19.3075,VALID,171,VALID,1.09911,
2000-08-10, 03:07:00,VALID,915.516,VALID,0,VALID,100,VALID,-0.0679233,VALID,19.3137,VALID,176,VALID,0.691295,
2000-08-10, 03:08:00,VALID,915.516,VALID,0.2,VALID,100,VALID,-0.118866,VALID,19.2906,VALID,200,VALID,0.617599,
2000-08-10, 03:09:00,VALID,915.526,VALID,0,VALID,100,VALID,-0.101885,VALID,19.2973,VALID,192,VALID,0.750801,
2000-08-10, 03:10:00,VALID,915.508,VALID,0,VALID,100,VALID,-0.0849042,VALID,19.3006,VALID,205,VALID,0.110352,
2000-08-10, 03:11:00,VALID,915.503,VALID,0,VALID,100,VALID,-0.0849042,VALID,19.317,VALID,222,VALID,0.595395,
2000-08-10, 03:12:00,VALID,915.495,VALID,0,VALID,100,VALID,-0.0679233,VALID,19.3137,VALID,231,VALID,0.753801,
2000-08-10, 03:13:00,VALID,915.482,VALID,0,VALID,100,VALID,0.0339617,VALID,19.312,VALID,231,VALID,0.522236,
2000-08-10, 03:14:00,VALID,915.464,VALID,0,VALID,100,VALID,0.0509425,VALID,19.3088,VALID,219,VALID,0.849559,
2000-08-10, 03:15:00,VALID,915.453,VALID,0,VALID,100,VALID,0,VALID,19.3088,VALID,226,VALID,1.06771,
2000-08-10, 03:16:00,VALID,915.431,VALID,0,VALID,100,VALID,0,VALID,19.2991,VALID,240,VALID,1.13638,
2000-08-10, 03:17:00,VALID,915.416,VALID,0,VALID,100,VALID,0.0509425,VALID,19.2994,VALID,234,VALID,1.06328,
2000-08-10, 03:18:00,VALID,915.394,VALID,0,VALID,100,VALID,0,VALID,19.3023,VALID,247,VALID,0.86263,
2000-08-10, 03:19:00,VALID,915.375,VALID,0,VALID,100,VALID,0.0339617,VALID,19.2956,VALID,250,VALID,0.609809,
2000-08-10, 03:20:00,VALID,915.363,VALID,0,VALID,100,VALID,0,VALID,19.3028,VALID,253,VALID,0,
2000-08-10, 03:21:00,VALID,915.358,VALID,0,VALID,100,VALID,0.0339617,VALID,19.2989,VALID,293,VALID,0.190584,
2000-08-10, 03:22:00,VALID,915.365,VALID,0,VALID,100,VALID,0.0509425,VALID,19.2924,VALID,295,VALID,0.341639,
2000-08-10, 03:23:00,VALID,915.372,VALID,0,VALID,100,VALID,0,VALID,19.2961,VALID,287,VALID,0.123522,
2000-08-10, 03:24:00,VALID,915.387,VALID,0,VALID,100,VALID,0.0679233,VALID,19.2989,VALID,282,VALID,0,
2000-08-10, 03:25:00,VALID,915.397,VALID,0,VALID,100,VALID,0,VALID,19.3056,VALID,262,VALID,0,
2000-08-10, 03:26:00,VALID,915.405,VALID,0,VALID,100,VALID,0.0509425,VALID,19.2887,VALID,262,VALID,0,
2000-08-10, 03:27:00,VALID,915.409,VALID,0,VALID,100,VALID,0.0339617,VALID,19.2956,VALID,262,VALID,0,
2000-08-10, 03:28:00,VALID,915.406,VALID,0,VALID,100,VALID,0.0339617,VALID,19.2959,VALID,262,VALID,0,
2000-08-10, 03:29:00,VALID,915.418,VALID,0,VALID,100,VALID,0,VALID,19.3023,VALID,262,VALID,0,
2000-08-10, 03:30:00,VALID,915.42,VALID,0,VALID,100,VALID,0.0169808,VALID,19.319,VALID,261,VALID,0,
2000-08-10, 03:31:00,VALID,915.417,VALID,0,VALID,100,VALID,0,VALID,19.3153,VALID,213,VALID,0,
2000-08-10, 03:32:00,VALID,915.418,VALID,0,VALID,100,VALID,0.0509425,VALID,19.3021,VALID,223,VALID,0,
2000-08-10, 03:33:00,VALID,915.417,VALID,0,VALID,100,VALID,0.0169808,VALID,19.2986,VALID,222,VALID,0,
2000-08-10, 03:34:00,VALID,915.407,VALID,0,VALID,100,VALID,0.0169808,VALID,19.2961,VALID,228,VALID,0.32168,
2000-08-10, 03:35:00,VALID,915.412,VALID,0,VALID,100,VALID,0.0849042,VALID,19.2763,VALID,234,VALID,0.00520833,
2000-08-10, 03:36:00,VALID,915.397,VALID,0,VALID,100,VALID,0.0169808,VALID,19.27,VALID,241,VALID,0,
2000-08-10, 03:37:00,VALID,915.416,VALID,0,VALID,100,VALID,0.0339617,VALID,19.2604,VALID,255,VALID,0.0629006,
2000-08-10, 03:38:00,VALID,915.423,VALID,0,VALID,100,VALID,0.101885,VALID,19.2405,VALID,250,VALID,0.66653,
2000-08-10, 03:39:00,VALID,915.438,VALID,0,VALID,100,VALID,0.0509425,VALID,19.238,VALID,259,VALID,0.098273,
2000-08-10, 03:40:00,VALID,915.451,VALID,0,VALID,100,VALID,0.0679233,VALID,19.2343,VALID,234,VALID,0,
2000-08-10, 03:41:00,VALID,915.477,VALID,0,VALID,100,VALID,0.0339617,VALID,19.2377,VALID,222,VALID,0,
2000-08-10, 03:42:00,VALID,915.504,VALID,0,VALID,100,VALID,0.020377,VALID,19.2412,VALID,217,VALID,0,
2000-08-10, 03:43:00,VALID,915.512,VALID,0,VALID,100,VALID,-0.0679233,VALID,19.2357,VALID,209,VALID,0,
2000-08-10, 03:44:00,VALID,915.531,VALID,0,VALID,100,VALID,-0.0339617,VALID,19.2387,VALID,163,VALID,0.0975561,
2000-08-10, 03:45:00,VALID,915.544,VALID,0,VALID,100,VALID,-0.0339617,VALID,19.232,VALID,192,VALID,0.15024,
2000-08-10, 03:46:00,VALID,915.548,VALID,0,VALID,100,VALID,-0.0509425,VALID,19.2322,VALID,177,VALID,0.168708,
2000-08-10, 03:47:00,VALID,915.55,VALID,0,VALID,100,VALID,-0.0679233,VALID,19.2653,VALID,148,VALID,0,